Date String (YYYY-MM-DD hh:mm:ss) UTC,Instrument flags,absolute air pressure of the measurement (hPa),sample flow rate (lpm),inlet stack bypass flow (lpm),air temperature of the measurement (°C),ambient temperature measured by the external sensor (°C),aerosol sample conditioner tube jacket temperature (°C),OPC LED temperature (°C),internal box temperature (°C),relative humidity of the measurement (%),span deviation,mass concentration of particles derived from Lorenz-Mie calculation of OPC scattering (μg/m³),mass concentration of particles derived from Lorenz-Mie calculation of OPC scattering (μg/m³),mass concentration of particles derived from Lorenz-Mie calculation of OPC scattering (μg/m³)
DateTimeUTC,F1_M11,P_M11,Q1_M11,Q2_M11,T1_M11,T2_M11,T3_M11,T4_M11,T5_M11,U1_M11,ZSPAN_M11,X2_M11,X0_M11,X1_M11
2024-05-17 01:00:00,SystemResetWarning,0822.9,5.01,000.00,024.4,024.0,000.0,032.3,026.4,020.5,0000.0,0003.64,0014.28,0002.80
2024-05-17 01:01:00,SystemResetWarning,0823.1,4.98,000.00,024.3,023.0,000.0,032.4,025.8,020.4,0000.0,0003.60,0014.36,0002.72
2024-05-17 01:02:00,SystemResetWarning,0822.8,5.01,000.00,024.0,021.1,000.0,032.4,024.7,020.4,0000.0,0003.59,0015.38,0002.68
2024-05-17 01:03:00,SystemResetWarning,0822.8,5.01,000.00,023.7,020.8,000.0,032.4,024.5,021.1,0000.0,0003.58,0013.92,0002.66
2024-05-17 01:04:00,SystemResetWarning,0822.8,5.00,000.00,023.6,021.3,000.0,032.3,024.7,021.1,0000.0,0003.58,0013.44,0002.66
2024-05-17 01:05:00,SystemResetWarning,0822.9,5.00,000.00,023.6,021.7,000.0,032.2,025.0,021.0,0000.0,0003.58,0012.77,0002.66
2024-05-17 01:06:00,SystemResetWarning,0823.1,5.01,000.00,023.7,022.1,000.0,032.1,025.2,020.8,0000.0,0003.56,0012.54,0002.64
2024-05-17 01:07:00,SystemResetWarning,0823.4,5.00,000.00,023.8,022.5,000.0,032.1,025.4,020.8,0000.0,0003.50,0011.77,0002.59
2024-05-17 01:08:00,SystemResetWarning,0823.1,5.00,000.00,023.8,022.8,000.0,032.1,025.6,020.5,0000.0,0003.46,0011.15,0002.54
2024-05-17 01:09:00,SystemResetWarning,0822.9,5.00,000.00,023.9,023.1,000.0,032.1,025.7,020.2,0000.0,0003.45,0011.26,0002.52
2024-05-17 01:10:00,SystemResetWarning,0823.0,5.00,000.00,024.0,023.3,000.0,032.1,025.9,020.1,0000.0,0003.46,0011.14,0002.51
2024-05-17 01:11:00,SystemResetWarning,0822.9,5.00,000.00,024.1,023.5,000.0,032.1,026.0,020.0,0000.0,0003.48,0011.16,0002.51
2024-05-17 01:12:00,SystemResetWarning,0823.1,5.00,000.00,024.2,023.7,000.0,032.2,026.1,019.8,0000.0,0003.45,0010.86,0002.52
2024-05-17 01:13:00,SystemResetWarning,0822.9,5.00,000.00,024.3,023.9,000.0,032.2,026.3,019.9,0000.0,0003.47,0009.93,0002.54
2024-05-17 01:14:00,SystemResetWarning,0823.0,5.01,000.00,024.4,024.0,000.0,032.3,026.3,019.7,0000.0,0003.49,0009.94,0002.54
2024-05-17 01:15:00,SystemResetWarning,0822.9,4.97,000.00,024.3,022.7,000.0,032.4,025.5,019.6,0000.0,0003.50,0010.46,0002.53
2024-05-17 01:16:00,SystemResetWarning,0822.8,5.02,000.00,023.9,020.8,000.0,032.4,024.5,020.1,0000.0,0003.53,0011.89,0002.53
2024-05-17 01:17:00,SystemResetWarning,0822.8,5.01,000.00,023.6,020.8,000.0,032.4,024.4,020.3,0000.0,0003.52,0011.62,0002.52
2024-05-17 01:18:00,SystemResetWarning,0823.1,4.99,000.00,023.6,021.3,000.0,032.2,024.7,020.3,0000.0,0003.51,0011.27,0002.53
2024-05-17 01:19:00,SystemResetWarning,0823.0,4.99,000.00,023.6,021.7,000.0,032.1,025.0,020.4,0000.0,0003.52,0011.01,0002.54
2024-05-17 01:20:00,SystemResetWarning,0822.9,5.01,000.00,023.7,022.1,000.0,032.1,025.2,020.1,0000.0,0003.49,0011.61,0002.54
2024-05-17 01:21:00,SystemResetWarning,0822.9,5.01,000.00,023.7,022.5,000.0,032.1,025.4,019.9,0000.0,0003.47,0011.65,0002.55
2024-05-17 01:22:00,SystemResetWarning,0823.0,5.00,000.00,023.8,022.8,000.0,032.0,025.6,019.7,0000.0,0003.48,0012.56,0002.56
2024-05-17 01:23:00,SystemResetWarning,0822.9,4.99,000.00,023.9,023.1,000.0,032.0,025.7,019.5,0000.0,0003.48,0012.60,0002.57
2024-05-17 01:24:00,SystemResetWarning,0823.2,5.00,000.00,024.0,023.3,000.0,032.1,025.9,019.6,0000.0,0003.45,0012.37,0002.57
2024-05-17 01:25:00,SystemResetWarning,0822.9,5.00,000.00,024.1,023.6,000.0,032.1,026.0,019.6,0000.0,0003.43,0012.39,0002.57
2024-05-17 01:26:00,SystemResetWarning,0822.9,5.01,000.00,024.2,023.7,000.0,032.1,026.1,019.7,0000.0,0003.45,0012.19,0002.59
2024-05-17 01:27:00,SystemResetWarning,0823.1,5.00,000.00,024.3,023.9,000.0,032.2,026.2,019.6,0000.0,0003.45,0010.81,0002.60
2024-05-17 01:28:00,SystemResetWarning,0822.9,5.00,000.00,024.3,024.0,000.0,032.2,026.3,019.4,0000.0,0003.45,0010.54,0002.61
2024-05-17 01:29:00,SystemResetWarning,0822.9,4.97,000.00,024.2,022.5,000.0,032.3,025.5,019.4,0000.0,0003.49,0010.73,0002.62
2024-05-17 01:30:00,SystemResetWarning,0823.1,5.02,000.00,023.9,021.7,000.0,032.4,025.0,019.7,0000.0,0003.48,0010.85,0002.63
2024-05-17 01:31:00,SystemResetWarning,0822.8,5.00,000.00,023.9,022.0,000.0,032.3,025.1,020.1,0000.0,0003.47,0011.08,0002.64
2024-05-17 01:32:00,SystemResetWarning,0822.9,4.99,000.00,023.9,022.3,000.0,032.2,025.3,020.4,0000.0,0003.47,0010.57,0002.63
2024-05-17 01:33:00,SystemResetWarning,0823.0,5.00,000.00,023.9,022.6,000.0,032.2,025.5,020.2,0000.0,0003.49,0009.28,0002.65
2024-05-17 01:34:00,SystemResetWarning,0823.0,5.00,000.00,024.0,023.0,000.0,032.2,025.7,020.2,0000.0,0003.49,0009.43,0002.66
2024-05-17 01:35:00,SystemResetWarning,0823.0,5.01,000.00,024.1,023.2,000.0,032.2,025.9,019.9,0000.0,0003.51,0010.08,0002.67
2024-05-17 01:36:00,SystemResetWarning,0823.0,5.00,000.00,024.2,023.5,000.0,032.2,026.0,019.8,0000.0,0003.52,0010.18,0002.68
2024-05-17 01:37:00,SystemResetWarning,0822.9,5.01,000.00,024.3,023.7,000.0,032.2,026.2,019.7,0000.0,0003.50,0010.19,0002.69
2024-05-17 01:38:00,SystemResetWarning,0822.9,5.00,000.00,024.3,023.9,000.0,032.3,026.3,019.5,0000.0,0003.50,0010.81,0002.68
2024-05-17 01:39:00,SystemResetWarning,0822.9,4.99,000.00,024.4,024.0,000.0,032.3,026.4,019.7,0000.0,0003.50,0010.83,0002.68
2024-05-17 01:40:00,SystemResetWarning,0822.9,4.98,000.00,024.3,022.9,000.0,032.4,025.7,019.5,0000.0,0003.48,0011.22,0002.68
2024-05-17 01:41:00,SystemResetWarning,0822.8,5.00,000.00,024.0,020.9,000.0,032.5,024.7,019.8,0000.0,0003.47,0011.54,0002.68
2024-05-17 01:42:00,SystemResetWarning,0822.9,5.01,000.00,023.7,020.8,000.0,032.4,024.5,020.2,0000.0,0003.48,0010.98,0002.68
2024-05-17 01:43:00,SystemResetWarning,0822.9,5.01,000.00,023.6,021.3,000.0,032.3,024.8,020.3,0000.0,0003.46,0010.98,0002.69
2024-05-17 01:44:00,SystemResetWarning,0823.0,4.98,000.00,023.6,021.7,000.0,032.2,025.0,020.3,0000.0,0003.44,0011.64,0002.67
2024-05-17 01:45:00,SystemResetWarning,0822.9,5.00,000.00,023.7,022.1,000.0,032.1,025.2,020.2,0000.0,0003.45,0012.00,0002.66
2024-05-17 01:46:00,SystemResetWarning,0823.0,5.01,000.00,023.8,022.5,000.0,032.1,025.4,020.0,0000.0,0003.43,0011.69,0002.64
2024-05-17 01:47:00,SystemResetWarning,0823.0,5.01,000.00,023.8,022.8,000.0,032.1,025.6,019.8,0000.0,0003.44,0012.04,0002.64
2024-05-17 01:48:00,SystemResetWarning,0823.0,4.99,000.00,023.9,023.1,000.0,032.1,025.7,019.7,0000.0,0003.46,0012.17,0002.63
2024-05-17 01:49:00,SystemResetWarning,0823.0,5.00,000.00,024.0,023.3,000.0,032.1,025.9,019.4,0000.0,0003.44,0011.55,0002.63
2024-05-17 01:50:00,SystemResetWarning,0823.0,5.00,000.00,024.1,023.5,000.0,032.1,026.0,019.3,0000.0,0003.43,0012.40,0002.64
2024-05-17 01:51:00,SystemResetWarning,0823.0,5.00,000.00,024.2,023.7,000.0,032.2,026.1,019.2,0000.0,0003.42,0011.96,0002.63
2024-05-17 01:52:00,SystemResetWarning,0823.0,5.00,000.00,024.3,023.9,000.0,032.2,026.3,019.0,0000.0,0003.39,0011.84,0002.63
2024-05-17 01:53:00,SystemResetWarning,0823.0,5.00,000.00,024.4,024.0,000.0,032.3,026.3,018.9,0000.0,0003.35,0011.61,0002.62
2024-05-17 01:54:00,SystemResetWarning,0823.0,4.98,000.00,024.2,022.6,000.0,032.4,025.5,019.0,0000.0,0003.36,0011.45,0002.61
2024-05-17 01:55:00,SystemResetWarning,0823.0,5.01,000.00,023.8,020.7,000.0,032.4,024.4,019.5,0000.0,0003.36,0011.00,0002.60
2024-05-17 01:56:00,SystemResetWarning,0823.0,5.01,000.00,023.6,020.7,000.0,032.4,024.4,020.8,0000.0,0003.38,0010.47,0002.60
2024-05-17 01:57:00,SystemResetWarning,0823.0,5.00,000.00,023.5,021.2,000.0,032.2,024.7,023.0,0000.0,0003.35,0009.99,0002.61
2024-05-17 01:58:00,SystemResetWarning,0823.1,5.00,000.00,023.5,021.6,000.0,032.1,024.9,023.0,0000.0,0003.38,0009.63,0002.63
2024-05-17 01:59:00,SystemResetWarning,0823.1,4.99,000.00,023.6,022.0,000.0,032.0,025.1,022.0,0000.0,0003.39,0008.74,0002.64
